Terminal Aerodrome Forecast
Issued by NWS Blacksburg, VA

Home | Current Version | Previous Version | Text Only | Print | Product List | Glossary On
Versions: 1 2 3 4 5 6 7 8 9 10 11 12 13 14 15 16 17 18 19 20 21 22 23 24 25 26 27 28 29 30 31 32 33 34 35 36
000
FTUS41 KRNK 202322
TAFROA
TAF
KROA 202322Z 2100/2124 33007KT P6SM SKC
     FM210200 VRB03KT P6SM SKC
     FM211700 17004KT P6SM FEW200
     FM212200 14007KT P6SM SCT150=

USA.gov is the U.S. government's official web portal to all federal, state and local government web resources and services.